Location: Olsztyn
(53.7767°N, 20.4765°E)
Time: 18:24:21
(UTC+02:00)

A-11 Canister half - Pass Details

Date: 19 January 2022
Orbit: 1513 x 1686 km, 47.2° (Epoch: 24 May)

Event Time Altitude Azimuth Distance (km) Brightness Sun altitude
Rises 16:29:32 0° 189° (S) 4,730 12.1 -5.2°
Reaches altitude 10° 16:33:46 10° 173° (S) 3,722 11.3 -5.8°
Maximum altitude 16:39:44 19° 133° (SE) 3,036 10.4 -6.6°
Drops below altitude 10° 16:45:38 10° 92° (E) 3,681 10.5 -7.4°
Enters shadow 16:47:14 - 85° (E) 4,029 10.6 -7.6°
